STARLINK-1146, 45094

Orbit data source: Space-Track

STARLINK-1146, 45094 is a payload satellite owned by SpaceX/Seattle (US) in LEO that was launched on Wed, 29 Jan 2020 UTC via an FALCON 9 launch vehicle from the Air Force Eastern Test Range (AFETR). Payload-class satellites include a variety of spacecraft equipped with specific instruments for various scientific and technological missions. These include communications satellites like Starlink; space stations such as the ISS; scientific satellites like the Hubble; Earth observation satellites from companies like Planet Labs, Umbra, and HawkEye 360; GPS; miniature CubeSats for education and research; and military/defense satellites.

Not visible in the next 10 days
Identifier
45094, 2020-006BC
Orbit
LEO
Country
Flag of USUS
Related business
Manufacturer
SpaceX/Seattle
Mission
Partially operational Commercial Communications
Bus & Motor
STARLINK, Unknown motor
Mass
260 kg wet, ~248 kg dry
Launch date (UTC)
2020-01-29 (6 years ago)
Launch vehicle
FALCON 9
Launch site
Air Force Eastern Test Range (AFETR)
Object type
Payload
Rocket body
Debris
Shape & HBR
Box + 1 Pan, 4.4 m
Radar Cross Section
13.562 m², Large (>1 m²)

Expand to show TLE details & history
Last TLE update: 18 hours ago

TLE from 18 hours ago
0 STARLINK-1146
1 45094U 20006BC  25259.58337963  .00377644  66270-4  10533-2 0  9997
2 45094  53.0453 259.0661 0004929 359.6231 347.7549 15.93172256  5966
Epoch: 2025-09-16T14:00Z
TLE epoch observation values (Epoch: 2025-09-16T14:00:04Z)
Latitude
-10.20812°
Longitude
45.53623°
Altitude
292.992 km
Speed
7.734 km/s
True Right ascension
16h 45m 17s
True Declination
-10° 08' 39"
Sunlit
Object was in daylight at epoch
Visualization orbit readout
Latitude
Unknown
Longitude
Unknown
Altitude
Unknown
Speed
Unknown
Apparent Right ascension
Unknown
Apparent Declination
Unknown
Sunlit
N/A
Visualization observer readout
Local Sidereal Time
00:43:48
Azimuth
Unknown
Elevation
Unknown
Doppler factor
Unknown
Orbital elements
Apogee altitude
296.983 km
Perigee altitude
290.406 km
Semi-major axis
6,671.831 km
Eccentricity
0.00049
Inclination
53.0453°
RAAN
259.0661°
Arg. of periapsis
359.6231°
True anomaly
347.74291°
Mean anomaly
347.7549°
Eccentric anomaly
347.74891°
Mean motion
3.98268 °/min
Orbital period
90.39 mins
BSTAR
0.0010533
Loading maneuver chart data...
Computing Atmospheric mass density...

Documentation

Showing up to 5 results
|